Flag for Norway Weather past 2 weeks in Søgne, Norway

Now
46 °F

Cool.


Feels Like: 46 °F
Forecast: 36 / 58 °F
Wind: 2 mph from West

Location: Oksoy Fyr


UV Index: 0 (Low)

Visibility: N/A


Pressure: 30.25 "Hg

Humidity: 82%

Dew point: 41 °F

Location of SøgneLocation

Historic Weather in Søgne

°F

Søgne temperature yesterday

Maximum temperature yesterday: 51 °F (at 11:00 AM)
Minimum temperature yesterday: 40 °F (at 3:00 AM)
Average temperature yesterday: 46 °F

Past Weeks' High & Low Weather Summary

 TemperatureHumidityPressure
High53 °F (Apr 14, 3:00 PM)96% (Apr 6, 12:00 PM)30.37 "Hg (Apr 6, 12:00 PM)
Low38 °F (Apr 11, 7:00 AM)35% (Apr 15, 11:00 AM)29.44 "Hg (Apr 8, 8:00 AM)
Average44 °F80%29.91 "Hg
* Reported Apr 4 8:00 PM — Apr 19 8:00 PM, Søgne, Weather by CustomWeather, © 2014

Note: Actual official high and low records may vary slightly from our data, if they occured in-between our weather recording intervals... More about our weather records

Advertising

Historic Weather Conditions — Data for Previous 24 hours

 ConditionsComfort  
Time TempWeatherWind HumidityBarometerVisibility
8:00 PM
Apr 19
47 °FCool.1 mph79%30.25 "HgN/A
7:00 PM48 °FCool.2 mph80%30.26 "HgN/A
6:00 PM49 °FCool.2 mph77%30.27 "HgN/A
5:00 PM49 °FCool.2 mph78%30.28 "HgN/A
4:00 PM49 °FCool.5 mph77%30.29 "HgN/A
3:00 PM49 °FCool.6 mph75%30.30 "HgN/A
2:00 PM49 °FCool.3 mph76%30.31 "HgN/A
1:00 PM49 °FCool.6 mph74%30.31 "HgN/A
12:00 PM49 °FCool.5 mph73%30.31 "HgN/A
11:00 AM48 °FCool.7 mph71%30.32 "HgN/A
10:00 AM47 °FCool.6 mph72%30.31 "HgN/A
9:00 AM44 °FQuite cool.3 mph76%30.30 "HgN/A
8:00 AM41 °FQuite cool.5 mph80%30.29 "HgN/A
7:00 AM39 °FChilly.5 mph82%30.27 "HgN/A
6:00 AM39 °FChilly.6 mph83%30.27 "HgN/A
5:00 AM40 °FChilly.6 mph83%30.25 "HgN/A
4:00 AM41 °FQuite cool.5 mph81%30.24 "HgN/A
3:00 AM41 °FQuite cool.5 mph80%30.24 "HgN/A
2:00 AM41 °FQuite cool.5 mph80%30.23 "HgN/A
1:00 AM42 °FQuite cool.5 mph77%30.22 "HgN/A
12:00 AM42 °FQuite cool.5 mph75%30.21 "HgN/A
10:00 PM
Apr 18
44 °FQuite cool.3 mph68%30.16 "HgN/A
Weather by CustomWeather, © 2014

See weather overview